| time (UTC) | temp F | wind direction | speed MPH | gust MPH | rain 1hr in | rain 24hr in | rain mn in | humidity % | barometer mb |
| 20260505010025 | 50 | 99 | 0.0 | 0.0 | 0.03 | 0.10 | 0.10 | 89 | 1015.7 |
| 20260505004534 | 50 | 99 | 0.0 | 0.0 | 0.04 | 0.10 | 0.10 | 88 | 1015.8 |
| 20260505003024 | 50 | 99 | 0.0 | 0.0 | 0.03 | 0.09 | 0.09 | 88 | 1015.5 |
| 20260505001524 | 50 | 94 | 0.0 | 0.0 | 0.03 | 0.08 | 0.08 | 87 | 1015.6 |
| 20260505000029 | 50 | 253 | 0.0 | 0.0 | 0.03 | 0.07 | 0.07 | 87 | 1015.6 |
| 20260504234521 | 51 | 256 | 0.0 | 0.0 | 0.04 | 0.06 | 0.06 | 87 | 1015.6 |
| 20260504233021 | 51 | 256 | 0.0 | 0.0 | 0.05 | 0.06 | 0.06 | 87 | 1015.4 |
| 20260504231524 | 52 | 256 | 0.0 | 0.0 | 0.04 | 0.04 | 0.04 | 86 | 1015.6 |
| 20260504230021 | 53 | 343 | 0.0 | 0.0 | 0.04 | 0.04 | 0.04 | 86 | 1015.7 |
| 20260504224519 | 55 | 101 | 0.0 | 0.0 | 0.02 | 0.02 | 0.02 | 86 | 1015.6 |
| 20260504223019 | 56 | 101 | 0.0 | 0.0 | 0.01 | 0.01 | 0.01 | 83 | 1015.6 |
| 20260504221521 | 57 | 240 | 0.0 | 2.0 | 0.00 | 0.00 | 0.00 | 79 | 1015.5 |
| 20260504220017 | 58 | 47 | 0.0 | 0.0 | 0.00 | 0.00 | 0.00 | 77 | 1015.4 |
| 20260504214516 | 59 | 18 | 0.0 | 0.0 | 0.00 | 0.00 | 0.00 | 74 | 1015.5 |
| 20260504213040 | 61 | 146 | 0.0 | 0.0 | 0.00 | 0.00 | 0.00 | 71 | 1015.6 |
| 20260504211518 | 61 | 219 | 0.0 | 0.0 | 0.00 | 0.00 | 0.00 | 70 | 1015.6 |
| 20260504210018 | 62 | 245 | 0.0 | 4.0 | 0.00 | 0.00 | 0.00 | 69 | 1015.5 |
| 20260504204514 | 62 | 145 | 0.0 | 9.0 | 0.00 | 0.00 | 0.00 | 71 | 1015.5 |
| 20260504203015 | 61 | 207 | 0.0 | 4.0 | 0.00 | 0.00 | 0.00 | 72 | 1015.5 |
| 20260504201521 | 60 | 173 | 0.0 | 4.0 | 0.00 | 0.00 | 0.00 | 74 | 1015.4 |
| 20260504200015 | 60 | 316 | 0.0 | 0.0 | 0.00 | 0.00 | 0.00 | 73 | 1015.5 |
| 20260504194517 | 61 | 140 | 0.0 | 5.0 | 0.00 | 0.00 | 0.00 | 71 | 1015.5 |
| 20260504193014 | 63 | 169 | 0.0 | 5.0 | 0.00 | 0.00 | 0.00 | 69 | 1015.4 |
| 20260504191512 | 64 | 252 | 0.0 | 7.0 | 0.00 | 0.00 | 0.00 | 67 | 1015.3 |
| 20260504190008 | 64 | 65 | 0.0 | 0.0 | 0.00 | 0.00 | 0.00 | 68 | 1015.4 |
| 20260504184511 | 63 | 106 | 0.0 | 3.0 | 0.00 | 0.00 | 0.00 | 71 | 1015.5 |
| 20260504183006 | 61 | 163 | 0.0 | 0.0 | 0.00 | 0.00 | 0.00 | 73 | 1015.5 |
| 20260504181504 | 62 | 147 | 0.0 | 0.0 | 0.00 | 0.00 | 0.00 | 72 | 1015.6 |
| 20260504180006 | 62 | 193 | 0.0 | 3.0 | 0.00 | 0.00 | 0.00 | 74 | 1015.6 |
| 20260504174617 | 61 | 157 | 0.0 | 6.0 | 0.00 | 0.00 | 0.00 | 76 | 1015.5 |
| 20260504173058 | 59 | 346 | 0.0 | 0.0 | 0.00 | 0.00 | 0.00 | 71 | 1015.5 |
| 20260504171553 | 59 | 315 | 0.0 | 1.0 | 0.00 | 0.00 | 0.00 | 73 | 1015.4 |
| 20260504100159 | 45 | 190 | 0.0 | 0.0 | 0.00 | 0.00 | 0.00 | 89 | 1014.6 |
| 20260504090118 | 46 | 190 | 0.0 | 0.0 | 0.00 | 0.00 | 0.00 | 88 | 1014.6 |
| 20260504081554 | 46 | 204 | 0.0 | 0.0 | 0.00 | 0.00 | 0.00 | 89 | 1014.9 |
| 20260504044540 | 50 | 185 | 0.0 | 1.0 | 0.00 | 0.00 | 0.00 | 86 | 1014.4 |
| 20260504043034 | 50 | 179 | 0.0 | 5.0 | 0.00 | 0.00 | 0.00 | 86 | 1014.3 |
| 20260504041528 | 50 | 200 | 0.0 | 3.0 | 0.00 | 0.00 | 0.00 | 86 | 1014.1 |
| 20260504040031 | 50 | 182 | 0.0 | 0.0 | 0.00 | 0.00 | 0.00 | 86 | 1014.1 |
| 20260504034536 | 51 | 182 | 0.0 | 0.0 | 0.00 | 0.00 | 0.00 | 86 | 1014.0 |
| 20260504033035 | 53 | 182 | 0.0 | 0.0 | 0.00 | 0.00 | 0.00 | 85 | 1013.9 |
| 20260504031524 | 54 | 182 | 0.0 | 0.0 | 0.00 | 0.00 | 0.00 | 84 | 1013.7 |